Weather History for Chicopee, MA

Change the Weather History Date:

Saturday, February 2, 2013

  Actual Average Record
Temperature  
Mean Temperature 22 °F -  
Max Temperature 30 °F 33 °F 46 °F (1998)
Min Temperature 15 °F 17 °F -2 °F (2005)
Degree Days  
Heating Degree Days 42    
Moisture  
Dew Point 6 °F    
Average Humidity 47    
Maximum Humidity 63    
Minimum Humidity 35    
Precipitation  
Precipitation 0.00 in - - ()
Sea Level Pressure  
Sea Level Pressure 30.13 in    
Wind  
Wind Speed 12 mph (SW)    
Max Wind Speed 22 mph    
Max Gust Speed 28 mph    
Visibility 10 miles    
Events Snow    
Averages and records for this station are not official NWS values.
T = Trace of Precipitation, MM = Missing Value Source: NWS Daily Summary

Daily Weather History Graph

Daily Weather History Graph

Search for Another Location

Airport:

Trip Planner

Search our weather history database for the weather conditions in past years. The results will help you decide how hot, cold, wet, or windy it might be!

Date:

Astronomy

Feb. 02, 2013 Rise Set
Actual Time 7:02 AM EST 5:06 PM EST
Civil Twilight 6:32 AM EST 5:35 PM EST
Nautical Twilight 5:59 AM EST 6:09 PM EST
Astronomical Twilight 5:26 AM EST 6:42 PM EST
Moon No Moon Rise 10:02 AM EST
Length of Visible Light 11h 03m
Length of Day
10h 04m
Waning Gibbous, 60% of the Moon is Illuminated
Feb 2
Waning Gibbous
Feb 3
Last Quarter
Feb 10
New
Feb 17
First Quarter
Feb 25
Full

Hourly Weather History & Observations

Time (EST) Temp. Windchill Dew Point Humidity Pressure Visibility Wind Dir Wind Speed Gust Speed Precip Events Conditions
12:55 AM 21.2 °F 8.9 °F 4.6 °F 49% 30.14 in 10.0 mi WNW 12.7 mph 24.2 mph N/A   Clear
1:55 AM 20.5 °F 4.3 °F 4.6 °F 50% 30.16 in 10.0 mi WNW 21.9 mph 27.6 mph N/A   Partly Cloudy
2:55 AM 19.6 °F 7.4 °F 2.7 °F 48% 30.18 in 10.0 mi WNW 11.5 mph - N/A   Clear
3:55 AM 18.7 °F 4.0 °F 1.8 °F 48% 30.19 in 10.0 mi West 16.1 mph - N/A   Clear
4:55 AM 17.1 °F 8.7 °F 2.1 °F 52% 30.21 in 10.0 mi West 5.8 mph - N/A   Clear
5:55 AM 16.3 °F 6.7 °F 1.6 °F 52% 30.22 in 10.0 mi West 6.9 mph - N/A   Clear
6:55 AM 15.3 °F 7.9 °F 2.3 °F 57% 30.23 in 10.0 mi West 4.6 mph - N/A   Clear
7:55 AM 17.4 °F - 2.7 °F 52% 30.25 in 10.0 mi Calm Calm - N/A   Clear
8:55 AM 20.1 °F 11.3 °F 3.6 °F 49% 30.25 in 10.0 mi SW 6.9 mph - N/A   Clear
10:55 AM 25.3 °F 14.7 °F 7.9 °F 48% 30.22 in 10.0 mi SSW 11.5 mph 19.6 mph N/A   Mostly Cloudy
11:55 AM 27.3 °F 16.6 °F 7.2 °F 43% 30.18 in 10.0 mi South 12.7 mph 18.4 mph N/A   Partly Cloudy
12:55 PM 28.6 °F 17.2 °F 6.6 °F 39% 30.13 in 10.0 mi South 15.0 mph 21.9 mph N/A   Partly Cloudy
1:55 PM 30.9 °F 21.2 °F 5.9 °F 35% 30.09 in 10.0 mi SSW 12.7 mph - N/A   Mostly Cloudy
2:55 PM 29.5 °F 18.0 °F 5.2 °F 36% 30.08 in 10.0 mi South 16.1 mph 20.7 mph N/A   Mostly Cloudy
3:55 PM 28.4 °F 18.5 °F 4.8 °F 37% 30.06 in 10.0 mi South 11.5 mph 21.9 mph N/A   Mostly Cloudy
4:55 PM 27.7 °F 17.6 °F 3.2 °F 35% 30.05 in 10.0 mi South 11.5 mph - N/A   Scattered Clouds
5:55 PM 26.4 °F 16.6 °F 4.5 °F 39% 30.05 in 10.0 mi South 10.4 mph - N/A   Clear
6:55 PM 26.2 °F 16.4 °F 6.1 °F 42% 30.05 in 10.0 mi SSW 10.4 mph - N/A   Clear
7:55 PM 25.3 °F 16.7 °F 7.2 °F 46% 30.06 in 10.0 mi WSW 8.1 mph - N/A   Clear
8:55 PM 25.3 °F 15.3 °F 8.4 °F 49% 30.05 in 10.0 mi SW 10.4 mph - N/A   Clear
9:55 PM 24.4 °F 13.5 °F 11.7 °F 58% 30.06 in 10.0 mi SW 11.5 mph - N/A   Clear
10:55 PM 23.4 °F 11.1 °F 12.6 °F 63% 30.06 in 10.0 mi WSW 13.8 mph - N/A   Clear
11:13 PM 23.0 °F 11.7 °F 12.2 °F 63% 30.06 in 10.0 mi WSW 11.5 mph - N/A Snow Light Snow